GW0118 Weather Reports


time (UTC)temp
F
wind
direction
speed
knots
gust
knots
rain 1hr
in
rain 24hr
in
rain mn
in
humidity
%
barometer
mb
20260904144602 93 66 9.6 17.4 0.00 0.00 0.00 19 1025.6
20260904143103 93 32 14.8 23.5 0.00 0.00 0.00 19 1025.8
20260904141559 93 25 12.2 19.1 0.00 0.00 0.00 18 1026.0
20260904140104 93 45 11.3 18.2 0.00 0.00 0.00 18 1025.9
20260904134603 94 21 9.6 18.2 0.00 0.00 0.00 18 1026.0
20260904133114 95 342 7.8 13.0 0.00 0.00 0.00 18 1026.0
20260904131600 94 28 9.6 15.6 0.00 0.00 0.00 18 1025.9
20260904130105 94 197 4.3 9.6 0.00 0.00 0.00 18 1026.0
20260904124611 93 58 3.5 7.8 0.00 0.00 0.00 18 1026.2
20260904123115 93 344 5.2 8.7 0.00 0.00 0.00 18 1026.4
20260904121605 92 280 1.7 8.7 0.00 0.00 0.00 19 1026.8
20260904120107 91 277 2.6 7.8 0.00 0.00 0.00 19 1026.9
20260904114602 91 0 0.9 6.1 0.00 0.00 0.00 19 1027.1
20260904113107 91 340 0.9 8.7 0.00 0.00 0.00 19 1027.2
20260904111609 90 304 2.6 7.8 0.00 0.00 0.00 20 1027.4
20260904110109 89 307 3.5 7.8 0.00 0.00 0.00 20 1027.4
20260904104603 89 11 4.3 7.8 0.00 0.00 0.00 20 1027.5
20260904103101 88 9 5.2 7.0 0.00 0.00 0.00 20 1027.6
20260904101616 88 285 2.6 5.2 0.00 0.00 0.00 19 1027.6
20260904100104 88 40 0.0 1.7 0.00 0.00 0.00 22 1027.7
20260904094601 86 0 0.9 1.7 0.00 0.00 0.00 22 1027.8
20260904093117 84 0 0.0 0.0 0.00 0.00 0.00 24 1027.8
20260904091604 81 0 0.0 0.9 0.00 0.00 0.00 28 1027.8
20260904090104 78 0 0.0 0.0 0.00 0.00 0.00 32 1027.6
20260904084602 76 0 0.0 0.9 0.00 0.00 0.00 39 1027.6
20260904083110 72 0 0.0 0.9 0.00 0.00 0.00 41 1027.6
20260904081602 69 52 0.0 0.9 0.00 0.00 0.00 44 1027.6
20260904080105 67 0 0.0 0.9 0.00 0.00 0.00 47 1027.4
20260904074603 64 53 0.0 0.9 0.00 0.00 0.00 49 1027.4
20260904073105 63 68 0.0 1.7 0.00 0.00 0.00 49 1027.4
20260904071600 64 0 0.0 0.0 0.00 0.00 0.00 48 1027.4
20260904070059 60 0 0.0 0.0 0.00 0.00 0.00 52 1027.4
20260904064605 58 0 0.0 0.0 0.00 0.00 0.00 54 1027.4
20260904063103 57 0 0.0 0.9 0.00 0.00 0.00 55 1027.3
20260904061615 56 0 0.0 0.9 0.00 0.00 0.00 57 1027.3
20260904060103 55 0 0.0 0.9 0.00 0.00 0.00 58 1027.1
20260904054608 55 0 0.0 0.9 0.00 0.00 0.00 57 1027.0
20260904053106 55 0 0.0 0.0 0.00 0.00 0.00 56 1026.9
20260904051605 55 0 0.0 0.0 0.00 0.00 0.00 55 1027.0
20260904050104 56 0 0.0 0.0 0.00 0.00 0.00 53 1027.2
20260904044611 56 0 0.0 0.9 0.00 0.00 0.00 52 1027.2
20260904043103 56 0 0.0 0.9 0.00 0.00 0.00 53 1027.3
20260904041603 56 0 0.0 0.9 0.00 0.00 0.00 52 1027.2
20260904034608 57 0 0.0 0.9 0.00 0.00 0.00 49 1027.2
20260904033111 57 0 0.0 0.0 0.00 0.00 0.00 48 1027.2
20260904031604 58 0 0.0 0.0 0.00 0.00 0.00 47 1027.4
20260904024614 58 0 0.0 0.9 0.00 0.00 0.00 45 1027.6
20260904023104 59 0 0.0 0.0 0.00 0.00 0.00 45 1027.6
20260904021603 59 0 0.0 0.9 0.00 0.00 0.00 44 1027.6
20260904020101 60 0 0.0 0.0 0.00 0.00 0.00 42 1027.7
20260904014608 59 0 0.0 0.9 0.00 0.00 0.00 42 1027.7
20260904013103 61 0 0.0 0.9 0.00 0.00 0.00 40 1027.8
20260904011614 61 0 0.0 0.0 0.00 0.00 0.00 40 1027.8
20260904010112 61 0 0.0 0.0 0.00 0.00 0.00 39 1027.8
20260904004603 62 0 0.0 0.9 0.00 0.00 0.00 38 1027.9
20260904003110 63 0 0.0 1.7 0.00 0.00 0.00 36 1027.9
20260904001604 64 0 0.0 0.9 0.00 0.00 0.00 35 1028.0
20260903234603 65 0 0.0 0.9 0.00 0.00 0.00 33 1028.0
20260903233101 66 0 0.0 0.0 0.00 0.00 0.00 33 1028.1
20260903231601 66 0 0.0 0.9 0.00 0.00 0.00 31 1028.1
20260903224603 67 89 0.0 0.0 0.00 0.00 0.00 29 1027.8
20260903223104 68 147 0.0 2.6 0.00 0.00 0.00 29 1027.8
20260903221604 68 137 0.0 4.3 0.00 0.00 0.00 28 1027.8
20260903220124 67 58 3.5 7.0 0.00 0.00 0.00 30 1027.8
20260903214605 70 0 0.0 0.9 0.00 0.00 0.00 28 1027.7
20260903213104 71 0 0.0 2.6 0.00 0.00 0.00 26 1027.7
20260903211619 72 0 0.0 0.0 0.00 0.00 0.00 28 1027.8
20260903210110 73 0 0.0 0.0 0.00 0.00 0.00 26 1027.7
20260903204603 75 0 0.0 0.9 0.00 0.00 0.00 25 1027.7
20260903203133 77 252 0.0 2.6 0.00 0.00 0.00 22 1027.6
20260903201603 79 0 0.0 0.0 0.00 0.00 0.00 22 1027.4
20260903200113 81 156 0.0 2.6 0.00 0.00 0.00 17 1027.2
20260903194605 83 135 0.0 2.6 0.00 0.00 0.00 15 1027.1
20260903193106 84 0 0.0 0.9 0.00 0.00 0.00 15 1027.0
20260903191605 86 0 0.0 4.3 0.00 0.00 0.00 14 1026.7
20260903190104 87 1 5.2 9.6 0.00 0.00 0.00 13 1026.5
20260903184559 87 312 2.6 6.1 0.00 0.00 0.00 15 1026.5
20260903183104 89 291 1.7 6.1 0.00 0.00 0.00 16 1026.4
20260903181558 91 273 1.7 5.2 0.00 0.00 0.00 19 1026.2
20260903180106 92 261 3.5 7.0 0.00 0.00 0.00 19 1026.1
20260903174601 92 260 3.5 7.0 0.00 0.00 0.00 18 1025.9
20260903173109 93 237 2.6 12.2 0.00 0.00 0.00 17 1026.0
20260903171616 94 259 2.6 4.3 0.00 0.00 0.00 17 1026.0
20260903170104 94 251 0.9 7.8 0.00 0.00 0.00 17 1025.9
20260903164640 94 267 0.9 9.6 0.00 0.00 0.00 17 1025.9
20260903163103 93 269 5.2 9.6 0.00 0.00 0.00 15 1025.8
20260903161600 93 219 7.8 13.0 0.00 0.00 0.00 18 1025.9
20260903160106 94 238 5.2 12.2 0.00 0.00 0.00 17 1025.9
20260903154606 94 236 2.6 7.8 0.00 0.00 0.00 18 1025.9
20260903153108 93 282 6.1 9.6 0.00 0.00 0.00 18 1025.9
20260903151604 93 219 4.3 8.7 0.00 0.00 0.00 17 1026.0
20260903150100 93 233 1.7 8.7 0.00 0.00 0.00 18 1026.1